FW3337 Weather Reports


Display with metric or nautical units.
time (UTC)temp
F
wind
direction
speed
MPH
gust
MPH
rain 1hr
in
rain 24hr
in
rain mn
in
humidity
%
barometer
mb
20260507010101 59 296 0.0 6.0 0.03 0.18 0.18 93 1007.6
20260507004549 61 275 2.0 4.0 0.01 0.16 0.16 95 1007.0
20260507003048 61 212 0.0 0.0 0.00 0.15 0.15 94 1006.5
20260507001551 61 212 0.0 0.0 0.00 0.15 0.15 94 1006.5
20260507000046 61 212 0.0 0.0 0.00 0.15 0.15 94 1006.6
20260506234545 61 212 0.0 0.0 0.00 0.15 0.15 94 1006.3
20260506233047 61 212 0.0 0.0 0.00 0.15 0.15 94 1006.1
20260506231545 61 212 0.0 0.0 0.00 0.15 0.15 94 1006.2
20260506230044 61 212 0.0 2.0 0.00 0.15 0.15 93 1006.2
20260506224544 61 183 1.0 4.0 0.00 0.15 0.15 93 1006.1
20260506223043 61 220 1.0 5.0 0.00 0.15 0.15 94 1006.0
20260506221545 61 253 0.0 4.0 0.00 0.15 0.15 94 1005.8
20260506220043 61 210 0.0 4.0 0.00 0.15 0.15 94 1005.8
20260506214545 61 235 0.0 2.0 0.00 0.15 0.15 94 1005.8
20260506213041 61 218 0.0 4.0 0.00 0.15 0.15 94 1005.7
20260506211541 61 220 0.0 3.0 0.00 0.15 0.15 94 1005.5
20260506210043 61 266 1.0 5.0 0.00 0.15 0.15 94 1005.4
20260506204539 61 226 0.0 5.0 0.01 0.15 0.15 94 1005.1
20260506203047 61 227 2.0 5.0 0.02 0.15 0.15 94 1005.1
20260506201545 61 220 0.0 4.0 0.04 0.15 0.15 94 1005.2
20260506200035 61 224 2.0 6.0 0.05 0.15 0.15 94 1005.5
20260506194540 61 209 0.0 5.0 0.08 0.14 0.14 93 1006.0
20260506193037 61 226 0.0 2.0 0.07 0.12 0.12 94 1006.0
20260506191530 61 226 0.0 4.0 0.06 0.11 0.11 93 1006.3
20260506190028 61 226 0.0 5.0 0.04 0.09 0.09 92 1006.3
20260506184527 62 210 2.0 5.0 0.01 0.06 0.06 90 1006.4
20260506183027 62 258 1.0 4.0 0.01 0.05 0.05 89 1006.4
20260506181525 62 248 2.0 8.0 0.01 0.05 0.05 90 1006.6
20260506180024 62 224 1.0 4.0 0.01 0.05 0.05 90 1006.7
20260506174524 62 227 1.0 11.0 0.02 0.05 0.05 90 1006.8
20260506173023 62 255 2.0 5.0 0.02 0.04 0.04 90 1006.8
20260506171523 62 222 0.0 4.0 0.04 0.04 0.04 90 1006.7
20260506170022 62 226 1.0 7.0 0.04 0.04 0.04 89 1007.0
20260506164522 63 238 0.0 1.0 0.03 0.03 0.03 89 1006.9
20260506163030 64 238 0.0 4.0 0.02 0.02 0.02 85 1007.2
20260506161516 64 237 1.0 6.0 0.00 0.00 0.00 82 1007.8
20260506160016 65 211 0.0 4.0 0.00 0.00 0.00 80 1007.9
20260506154517 65 222 0.0 7.0 0.00 0.00 0.00 78 1007.8
20260506153013 66 235 0.0 9.0 0.00 0.00 0.00 75 1007.8
20260506151513 67 207 2.0 7.0 0.00 0.00 0.00 72 1008.2
20260506150012 67 247 4.0 13.0 0.00 0.00 0.00 71 1008.1
20260506144511 68 245 4.0 10.0 0.00 0.00 0.00 71 1008.1
20260506143016 67 233 3.0 17.0 0.00 0.00 0.00 72 1008.1
20260506141510 67 277 1.0 11.0 0.00 0.00 0.00 73 1008.0
20260506140008 67 213 3.0 7.0 0.00 0.00 0.00 74 1008.2
20260506134508 66 233 2.0 8.0 0.00 0.00 0.00 74 1008.4
20260506133008 66 230 5.0 13.0 0.00 0.00 0.00 74 1008.0
20260506131507 66 213 3.0 8.0 0.00 0.00 0.00 75 1008.3
20260506130007 66 195 1.0 9.0 0.00 0.00 0.00 75 1007.9
20260506124505 65 251 0.0 8.0 0.00 0.00 0.00 76 1008.0
20260506123004 65 207 3.0 9.0 0.00 0.00 0.00 77 1008.1
20260506121504 65 216 3.0 8.0 0.00 0.00 0.00 77 1008.1
20260506120002 65 229 3.0 7.0 0.00 0.08 0.00 77 1008.3
20260506114501 65 235 2.0 10.0 0.00 0.08 0.00 77 1008.6
20260506113100 65 250 3.0 6.0 0.00 0.08 0.00 77 1008.3
20260506111600 65 172 3.0 9.0 0.00 0.08 0.00 78 1008.3
20260506110059 64 218 3.0 7.0 0.00 0.08 0.00 80 1008.3
20260506104558 63 226 1.0 7.0 0.00 0.08 0.00 80 1008.5
20260506103056 63 222 2.0 8.0 0.00 0.08 0.00 81 1008.3
20260506101555 62 228 1.0 4.0 0.00 0.08 0.00 83 1008.3
20260506100055 61 195 0.0 3.0 0.00 0.08 0.00 85 1008.0
20260506094554 60 204 0.0 2.0 0.00 0.08 0.00 85 1008.2
20260506093107 59 223 0.0 3.0 0.00 0.08 0.00 86 1008.2
20260506091551 60 223 0.0 2.0 0.00 0.08 0.00 84 1008.1
20260506090056 60 223 0.0 3.0 0.00 0.08 0.00 84 1008.3
20260506084548 59 223 0.0 3.0 0.00 0.08 0.00 85 1008.4
20260506083046 60 223 0.0 1.0 0.00 0.08 0.00 83 1008.5
20260506081544 60 223 0.0 2.0 0.00 0.08 0.00 82 1008.4
20260506073035 63 223 0.0 3.0 0.00 0.08 0.00 76 1008.4
20260506071535 64 223 0.0 4.0 0.00 0.08 0.00 74 1008.5
20260506061524 66 222 0.0 7.0 0.00 0.08 0.00 68 1008.6
20260506044516 68 167 1.0 7.0 0.00 0.08 0.00 63 1009.2
20260506043011 68 227 2.0 8.0 0.00 0.08 0.00 62 1009.3
20260506041509 69 223 1.0 10.0 0.00 0.08 0.00 62 1009.3
20260506040007 69 208 1.0 10.0 0.00 0.08 0.08 61 1009.1
20260506034507 70 199 2.0 11.0 0.00 0.08 0.08 59 1009.2
20260506033006 70 177 3.0 8.0 0.00 0.08 0.08 58 1009.0
20260506031504 71 223 2.0 5.0 0.00 0.08 0.08 55 1008.9
20260506030004 72 216 4.0 10.0 0.00 0.08 0.08 54 1008.9
20260506024504 72 210 2.0 8.0 0.00 0.08 0.08 52 1008.8
20260506023001 73 219 3.0 11.0 0.00 0.08 0.08 49 1008.8
20260506021502 74 210 4.0 9.0 0.00 0.08 0.08 47 1008.7
20260506020126 74 227 1.0 9.0 0.00 0.08 0.08 46 1008.6
20260506014600 74 206 2.0 5.0 0.00 0.08 0.08 46 1008.5
20260506013059 75 209 2.0 7.0 0.00 0.08 0.08 44 1008.3
20260506011602 75 237 2.0 11.0 0.00 0.08 0.08 43 1008.1